Regional Weather Roundup
Issued by NWS

Home | Current Version | Previous Version | Graphics & Text | Print | Product List | Glossary On
Versions: 1 2 3 4 5 6 7 8 9 10 11 12 13 14 15 16 17 18 19 20 21 22 23 24 25 26 27 28 29 30 31 32 33 34 35 36 37 38 39 40 41 42 43 44 45 46 47 48 49 50
000
ASUS45 KABQ 192001
RWRNM
NEW MEXICO REGIONAL WEATHER ROUNDUP
NATIONAL WEATHER SERVICE ALBUQUERQUE NM
200 PM MDT TUE SEP 19 2017

NOTE: "FAIR" MEANS FEW OR NO CLOUDS BELOW 12,000 FEET AGL WITH NO
       SIGNIFICANT WEATHER OR OBSTRUCTIONS TO VISION.

      THIS PRODUCT IS RELEASED AS TWO VERSIONS.  ONE VERSION NEAR
      THE TOP OF THE HOUR CONTAINING PRELIMINARY DATA FROM ALBUQUERQUE
      AND OTHER STATIONS.  A FINAL VERSION WITH ADDITIONAL DATA IS
      ISSUED ABOUT 10 MINUTES AFTER THE HOUR.

NMZ501-503-504-510>518-192100-
NORTHWEST PLATEAU/NORTHCENTRAL MOUNTAINS

CITY           SKY/WX    TMP DP  RH WIND       PRES   REMARKS
FARMINGTON     FAIR      77  20  12 W10       29.94F
LOS ALAMOS     FAIR      74  20  13 SW20G33   30.07F
SANTA FE       FAIR      80  24  12 W18G26    30.02F
TAOS           FAIR      75  26  16 W23G35    30.04F
ANGEL FIRE     FAIR      65  28  25 W23G33    30.10F

$$
NMZ402-403-502-505>509-192100-
WESTCENTRAL MOUNTAINS/SOUTHWEST MOUNTAINS

CITY           SKY/WX    TMP DP  RH WIND       PRES   REMARKS
GALLUP         FAIR      78  14   9 SW24G35   30.06F
GRANTS         FAIR      79  17   9 W18G28    30.08F
SILVER CITY    FAIR      83  46  27 W22       30.08F

$$
NMZ407-409-411-412-192100-
SOUTHERN DESERTS

CITY           SKY/WX    TMP DP  RH WIND       PRES   REMARKS
DEMING         FAIR      87  50  27 W17G24    30.00F
LAS CRUCES     PTSUNNY   89  46  22 W18G29    30.00F
HOLLOMAN AFB   FAIR      91  44  19 W21G26    29.96F
ALAMOGORDO     FAIR      90  41  18 SW16G30   29.97F
T OR C         FAIR      88  33  14 SW15G23   29.97F

$$
NMZ519>523-192100-
CENTRAL VALLEYS/CENTRAL HIGHLANDS

CITY           SKY/WX    TMP DP  RH WIND       PRES   REMARKS
ALBUQUERQUE    FAIR      83  22  10 SW14G26   29.98F
DOUBLE EAGLE   MOSUNNY   81  23  12 W30       30.01F
CLINES CORNERS FAIR      77  31  18 W30G45    30.05F
BELEN          FAIR      88  24  10 W18G25    29.96F
SOCORRO        FAIR      89  30  12 N9        29.93F

$$
NMZ524>526-539-540-192100-
SOUTHCENTRAL MOUNTAINS

CITY           SKY/WX    TMP DP  RH WIND       PRES   REMARKS
RUIDOSO        FAIR      77  37  24 W14G28    30.12F

$$
NMZ527>531-192100-
NORTHEAST HIGHLANDS/NORTHEAST PLAINS

CITY           SKY/WX    TMP DP  RH WIND       PRES   REMARKS
LAS VEGAS      FAIR      77  25  14 W23G31    29.99F
RATON          FAIR      76  25  15 SW17G29   29.88F
CLAYTON        FAIR      87  19   8 SW22G36   29.80F

$$
NMZ532>537-192100-
EASTCENTRAL PLAINS

CITY           SKY/WX    TMP DP  RH WIND       PRES   REMARKS
SANTA ROSA     FAIR      87  30  12 SW18G35   29.88F
TUCUMCARI      FAIR      93  28  10 W30G39    29.80F
CANNON AFB     FAIR      90  36  15 SW26G37   29.88F
CLOVIS AIRPORT FAIR      89  42  19 SW24      29.88F

$$
NMZ028-029-538-192100-
SOUTHEAST PLAINS

CITY           SKY/WX    TMP DP  RH WIND       PRES   REMARKS
ROSWELL        FAIR      97  43  15 W18G29    29.84F
ARTESIA        FAIR      95  50  21 SW23G33   29.87F
CARLSBAD       FAIR      96  46  18 W16G31    29.86F
HOBBS          SUNNY     93  43  17 SW14G21   29.90F


$$




USA.gov is the U.S. government's official web portal to all federal, state and local government web resources and services.